Location: Haram ta Haram Freeway
(35.0583°N, 51.4202°E)
Time: 21:21:43
(UTC+04:30)

Hubble Space Telescope - Pass Details

Date: 27 July 2021
Orbit: 535 x 539 km, 28.5° (Epoch: 18 September)

Event Time Altitude Azimuth Distance (km) Brightness Sun altitude
Rises 21:27:12 0° 256° (WSW) 2,665 4.9 -14.3°
Reaches altitude 10° 21:29:37 10° 246° (WSW) 1,774 3.8 -14.7°
Maximum altitude 21:33:18 32° 182° (S) 922 1.6 -15.3°
Enters shadow 21:34:26 27° 150° (SSE) 1,035 1.7 -15.4°
